Time,TemperatureF,DewpointF,PressureIn,WindDirection,WindDirectionDegrees,WindSpeedMPH,WindSpeedGustMPH,Humidity,HourlyPrecipIn,Conditions,Clouds,dailyrainin,SoftwareType,DateUTC
2013-10-21 00:14:00,77.2,75.0,29.88,SE,142,0.0,1.0,91,0.00,,,0.00,weatherlink.com 1.10,2013-10-21 04:14:00,
2013-10-21 00:29:00,76.8,74.0,29.88,SE,141,0.0,0.0,91,0.00,,,0.00,weatherlink.com 1.10,2013-10-21 04:29:00,
2013-10-21 00:44:00,76.5,74.0,29.87,SE,142,0.0,0.0,92,0.00,,,0.00,weatherlink.com 1.10,2013-10-21 04:44:00,
2013-10-21 00:59:00,76.6,75.0,29.87,SE,142,0.0,1.0,93,0.00,,,0.00,weatherlink.com 1.10,2013-10-21 04:59:00,
2013-10-21 01:14:00,76.4,75.0,29.86,SE,141,0.0,0.0,94,0.00,,,0.00,weatherlink.com 1.10,2013-10-21 05:14:00,
2013-10-21 01:29:00,76.4,74.0,29.86,SE,136,0.0,1.0,93,0.00,,,0.00,weatherlink.com 1.10,2013-10-21 05:29:00,
2013-10-21 01:44:00,76.3,74.0,29.86,SE,135,0.0,0.0,93,0.00,,,0.00,weatherlink.com 1.10,2013-10-21 05:44:00,
2013-10-21 01:59:00,76.3,74.0,29.86,SE,135,0.0,1.0,93,0.00,,,0.00,weatherlink.com 1.10,2013-10-21 05:59:00,
2013-10-21 02:14:00,76.2,74.0,29.85,SE,141,1.0,2.0,93,0.00,,,0.00,weatherlink.com 1.10,2013-10-21 06:14:00,
2013-10-21 02:29:00,76.1,74.0,29.85,SE,144,0.0,2.0,93,0.00,,,0.00,weatherlink.com 1.10,2013-10-21 06:29:00,
2013-10-21 02:44:00,75.9,74.0,29.85,SE,144,0.0,1.0,94,0.00,,,0.00,weatherlink.com 1.10,2013-10-21 06:44:00,
2013-10-21 02:59:00,75.7,74.0,29.86,SE,143,0.0,1.0,94,0.00,,,0.00,weatherlink.com 1.10,2013-10-21 06:59:00,
2013-10-21 03:14:00,75.7,74.0,29.85,SE,143,0.0,1.0,95,0.00,,,0.00,weatherlink.com 1.10,2013-10-21 07:14:00,
2013-10-21 03:29:00,75.6,74.0,29.85,SE,143,0.0,1.0,95,0.00,,,0.00,weatherlink.com 1.10,2013-10-21 07:29:00,
2013-10-21 03:44:00,75.7,74.0,29.86,ESE,115,0.0,2.0,95,0.00,,,0.00,weatherlink.com 1.10,2013-10-21 07:44:00,
2013-10-21 03:59:00,75.2,73.0,29.86,SE,141,0.0,1.0,94,0.00,,,0.00,weatherlink.com 1.10,2013-10-21 07:59:00,
2013-10-21 04:14:00,75.0,73.0,29.86,SE,141,0.0,0.0,94,0.00,,,0.00,weatherlink.com 1.10,2013-10-21 08:14:00,
2013-10-21 04:29:00,75.0,74.0,29.86,SE,141,0.0,1.0,95,0.00,,,0.00,weatherlink.com 1.10,2013-10-21 08:29:00,
2013-10-21 04:44:00,75.0,74.0,29.85,SE,141,0.0,0.0,95,0.00,,,0.00,weatherlink.com 1.10,2013-10-21 08:44:00,
2013-10-21 04:59:00,74.9,73.0,29.85,SE,139,0.0,1.0,95,0.00,,,0.00,weatherlink.com 1.10,2013-10-21 08:59:00,
2013-10-21 05:14:00,74.8,73.0,29.86,SE,139,0.0,0.0,95,0.00,,,0.00,weatherlink.com 1.10,2013-10-21 09:14:00,
2013-10-21 05:29:00,74.9,73.0,29.86,SE,140,0.0,1.0,95,0.00,,,0.00,weatherlink.com 1.10,2013-10-21 09:29:00,
2013-10-21 05:44:00,74.8,73.0,29.88,SE,139,0.0,1.0,95,0.00,,,0.00,weatherlink.com 1.10,2013-10-21 09:44:00,
2013-10-21 05:59:00,74.6,73.0,29.88,SE,139,0.0,0.0,95,0.00,,,0.00,weatherlink.com 1.10,2013-10-21 09:59:00,
2013-10-21 06:15:00,74.5,73.0,29.88,SE,125,0.0,1.0,95,0.00,,,0.00,weatherlink.com 1.10,2013-10-21 10:15:00,
2013-10-21 06:30:00,74.9,73.0,29.88,SE,125,0.0,1.0,95,0.00,,,0.00,weatherlink.com 1.10,2013-10-21 10:30:00,
2013-10-21 06:45:00,75.1,74.0,29.88,SE,124,0.0,1.0,95,0.00,,,0.00,weatherlink.com 1.10,2013-10-21 10:45:00,
2013-10-21 07:00:00,76.3,75.0,29.88,SE,124,0.0,0.0,94,0.00,,,0.00,weatherlink.com 1.10,2013-10-21 11:00:00,
2013-10-21 07:15:00,77.2,75.0,29.89,SE,124,0.0,1.0,93,0.00,,,0.00,weatherlink.com 1.10,2013-10-21 11:15:00,
2013-10-21 07:30:00,78.2,76.0,29.90,SE,125,0.0,1.0,92,0.00,,,0.00,weatherlink.com 1.10,2013-10-21 11:30:00,
2013-10-21 07:45:00,81.9,78.0,29.90,SE,125,0.0,1.0,87,0.00,,,0.00,weatherlink.com 1.10,2013-10-21 11:45:00,
2013-10-21 08:00:00,82.6,77.0,29.90,SSE,153,0.0,2.0,82,0.00,,,0.00,weatherlink.com 1.10,2013-10-21 12:00:00,
2013-10-21 08:15:00,82.9,77.0,29.91,ESE,106,0.0,1.0,83,0.00,,,0.00,weatherlink.com 1.10,2013-10-21 12:15:00,
2013-10-21 08:30:00,84.3,77.0,29.91,ESE,114,0.0,3.0,79,0.00,,,0.00,weatherlink.com 1.10,2013-10-21 12:30:00,
2013-10-21 08:45:00,85.8,77.0,29.91,ESE,122,0.0,1.0,75,0.00,,,0.00,weatherlink.com 1.10,2013-10-21 12:45:00,
2013-10-21 09:00:00,86.8,77.0,29.91,ENE,58,1.0,2.0,72,0.00,,,0.00,weatherlink.com 1.10,2013-10-21 13:00:00,
2013-10-21 09:15:00,86.2,78.0,29.92,ESE,103,0.0,3.0,76,0.00,,,0.00,weatherlink.com 1.10,2013-10-21 13:15:00,
2013-10-21 09:30:00,86.5,77.0,29.92,East,91,0.0,2.0,73,0.00,,,0.00,weatherlink.com 1.10,2013-10-21 13:30:00,
2013-10-21 09:45:00,88.0,78.0,29.91,NE,53,2.0,4.0,73,0.00,,,0.00,weatherlink.com 1.10,2013-10-21 13:45:00,
2013-10-21 10:01:00,88.3,78.0,29.91,East,91,3.0,3.0,72,0.00,,,0.00,weatherlink.com 1.10,2013-10-21 14:01:00,
2013-10-21 10:15:00,89.7,78.0,29.92,East,98,0.0,1.0,69,0.00,,,0.00,weatherlink.com 1.10,2013-10-21 14:15:00,
2013-10-21 10:30:00,91.3,78.0,29.91,SW,233,0.0,2.0,65,0.00,,,0.00,weatherlink.com 1.10,2013-10-21 14:30:00,
2013-10-21 10:45:00,91.8,78.0,29.91,NE,43,2.0,4.0,64,0.00,,,0.00,weatherlink.com 1.10,2013-10-21 14:45:00,
2013-10-21 11:00:00,89.5,79.0,29.90,NE,46,2.0,5.0,70,0.00,,,0.00,weatherlink.com 1.10,2013-10-21 15:00:00,
2013-10-21 11:15:00,88.1,78.0,29.89,North,356,4.0,7.0,72,0.00,,,0.00,weatherlink.com 1.10,2013-10-21 15:15:00,
2013-10-21 11:30:00,86.3,78.0,29.90,ENE,59,1.0,6.0,77,0.10,,,0.10,weatherlink.com 1.10,2013-10-21 15:30:00,
2013-10-21 11:45:00,81.8,79.0,29.89,NNW,330,1.0,6.0,90,0.56,,,0.56,weatherlink.com 1.10,2013-10-21 15:45:00,
2013-10-21 12:00:00,80.9,78.0,29.89,NW,316,2.0,4.0,92,0.60,,,0.60,weatherlink.com 1.10,2013-10-21 16:00:00,
2013-10-21 12:15:00,79.1,76.0,29.89,West,268,0.0,6.0,90,0.60,,,0.60,weatherlink.com 1.10,2013-10-21 16:15:00,
2013-10-21 12:30:00,79.0,76.0,29.87,West,260,0.0,3.0,89,0.50,,,0.60,weatherlink.com 1.10,2013-10-21 16:30:00,
2013-10-21 12:45:00,81.1,78.0,29.86,West,262,1.0,2.0,89,0.04,,,0.60,weatherlink.com 1.10,2013-10-21 16:45:00,
2013-10-21 13:01:00,82.1,78.0,29.86,West,266,1.0,4.0,86,0.00,,,0.60,weatherlink.com 1.10,2013-10-21 17:01:00,
2013-10-21 13:16:00,82.5,78.0,29.86,SW,232,0.0,3.0,86,0.00,,,0.60,weatherlink.com 1.10,2013-10-21 17:16:00,
2013-10-21 13:31:00,83.0,79.0,29.85,West,266,1.0,2.0,87,0.00,,,0.60,weatherlink.com 1.10,2013-10-21 17:31:00,
2013-10-21 13:46:00,83.4,79.0,29.85,SW,221,0.0,3.0,87,0.01,,,0.61,weatherlink.com 1.10,2013-10-21 17:46:00,
2013-10-21 14:01:00,83.0,79.0,29.84,NNE,32,0.0,5.0,87,0.01,,,0.61,weatherlink.com 1.10,2013-10-21 18:01:00,
2013-10-21 14:16:00,83.3,79.0,29.84,ENE,66,0.0,4.0,86,0.01,,,0.61,weatherlink.com 1.10,2013-10-21 18:16:00,
2013-10-21 14:31:00,84.0,79.0,29.84,NE,53,1.0,7.0,84,0.01,,,0.61,weatherlink.com 1.10,2013-10-21 18:31:00,
2013-10-21 14:46:00,83.7,78.0,29.84,ENE,75,3.0,8.0,84,0.00,,,0.61,weatherlink.com 1.10,2013-10-21 18:46:00,
2013-10-21 15:01:00,83.6,78.0,29.84,ESE,105,0.0,8.0,84,0.00,,,0.61,weatherlink.com 1.10,2013-10-21 19:01:00,
2013-10-21 15:16:00,83.8,79.0,29.83,East,98,2.0,6.0,84,0.00,,,0.61,weatherlink.com 1.10,2013-10-21 19:16:00,
2013-10-21 15:31:00,82.9,77.0,29.83,ESE,121,3.0,6.0,83,0.00,,,0.61,weatherlink.com 1.10,2013-10-21 19:31:00,
2013-10-21 15:46:00,81.0,76.0,29.83,ESE,113,1.0,2.0,84,0.00,,,0.61,weatherlink.com 1.10,2013-10-21 19:46:00,
2013-10-21 16:01:00,80.8,75.0,29.83,East,101,0.0,2.0,83,0.00,,,0.61,weatherlink.com 1.10,2013-10-21 20:01:00,
2013-10-21 16:16:00,81.2,76.0,29.83,SSE,148,0.0,0.0,84,0.00,,,0.61,weatherlink.com 1.10,2013-10-21 20:16:00,
2013-10-21 16:31:00,81.7,76.0,29.84,SSE,148,0.0,1.0,83,0.00,,,0.61,weatherlink.com 1.10,2013-10-21 20:31:00,
2013-10-21 16:46:00,82.1,77.0,29.84,SSE,148,0.0,0.0,84,0.00,,,0.61,weatherlink.com 1.10,2013-10-21 20:46:00,
2013-10-21 17:01:00,81.9,77.0,29.85,SE,133,0.0,1.0,84,0.00,,,0.61,weatherlink.com 1.10,2013-10-21 21:01:00,
2013-10-21 17:16:00,82.4,78.0,29.84,SE,138,0.0,1.0,85,0.00,,,0.61,weatherlink.com 1.10,2013-10-21 21:16:00,
2013-10-21 17:31:00,82.2,78.0,29.84,SE,139,0.0,1.0,86,0.00,,,0.61,weatherlink.com 1.10,2013-10-21 21:31:00,
2013-10-21 17:46:00,81.7,78.0,29.85,SE,138,0.0,1.0,87,0.00,,,0.61,weatherlink.com 1.10,2013-10-21 21:46:00,
2013-10-21 18:01:00,80.8,77.0,29.86,SE,138,0.0,0.0,88,0.00,,,0.61,weatherlink.com 1.10,2013-10-21 22:01:00,
2013-10-21 18:16:00,80.3,77.0,29.86,SE,138,0.0,1.0,89,0.00,,,0.61,weatherlink.com 1.10,2013-10-21 22:16:00,
2013-10-21 18:31:00,80.1,77.0,29.87,SE,138,0.0,1.0,90,0.00,,,0.61,weatherlink.com 1.10,2013-10-21 22:31:00,
2013-10-21 18:46:00,80.2,77.0,29.87,SSE,149,0.0,2.0,91,0.00,,,0.61,weatherlink.com 1.10,2013-10-21 22:46:00,
2013-10-21 19:01:00,79.7,77.0,29.86,SE,138,0.0,1.0,91,0.00,,,0.61,weatherlink.com 1.10,2013-10-21 23:01:00,
2013-10-21 19:16:00,79.6,77.0,29.86,SE,141,1.0,2.0,91,0.00,,,0.61,weatherlink.com 1.10,2013-10-21 23:16:00,
2013-10-21 19:46:00,78.5,76.0,29.88,SSW,210,0.0,1.0,92,0.00,,,0.61,weatherlink.com 1.10,2013-10-21 23:46:00,
2013-10-21 20:01:00,78.4,76.0,29.90,WSW,238,0.0,1.0,93,0.00,,,0.61,weatherlink.com 1.10,2013-10-22 00:01:00,
2013-10-21 20:16:00,78.2,75.0,29.90,SE,145,2.0,9.0,90,0.00,,,0.61,weatherlink.com 1.10,2013-10-22 00:16:00,
2013-10-21 20:31:00,78.4,74.0,29.89,South,173,1.0,3.0,87,0.00,,,0.61,weatherlink.com 1.10,2013-10-22 00:31:00,
2013-10-21 20:46:00,78.5,74.0,29.89,SE,143,2.0,7.0,86,0.00,,,0.61,weatherlink.com 1.10,2013-10-22 00:46:00,
2013-10-21 21:01:00,78.8,74.0,29.90,SE,139,1.0,4.0,85,0.00,,,0.61,weatherlink.com 1.10,2013-10-22 01:01:00,
2013-10-21 21:16:00,78.6,75.0,29.90,East,101,0.0,3.0,87,0.00,,,0.61,weatherlink.com 1.10,2013-10-22 01:16:00,
2013-10-21 21:31:00,78.5,74.0,29.90,East,100,0.0,1.0,87,0.00,,,0.61,weatherlink.com 1.10,2013-10-22 01:31:00,
2013-10-21 21:46:00,78.1,74.0,29.90,SSE,148,0.0,2.0,88,0.00,,,0.61,weatherlink.com 1.10,2013-10-22 01:46:00,
2013-10-21 22:01:00,77.7,74.0,29.90,SW,215,0.0,1.0,88,0.00,,,0.61,weatherlink.com 1.10,2013-10-22 02:01:00,
2013-10-21 22:16:00,77.9,74.0,29.90,WNW,303,0.0,2.0,88,0.00,,,0.61,weatherlink.com 1.10,2013-10-22 02:16:00,
2013-10-21 22:31:00,77.8,74.0,29.90,WNW,300,0.0,1.0,88,0.00,,,0.61,weatherlink.com 1.10,2013-10-22 02:31:00,
2013-10-21 22:46:00,77.7,74.0,29.90,WNW,301,0.0,0.0,88,0.00,,,0.61,weatherlink.com 1.10,2013-10-22 02:46:00,
2013-10-21 23:01:00,77.5,74.0,29.91,NNE,32,0.0,2.0,90,0.00,,,0.61,weatherlink.com 1.10,2013-10-22 03:01:00,
2013-10-21 23:16:00,77.1,74.0,29.91,NNE,32,0.0,0.0,91,0.00,,,0.61,weatherlink.com 1.10,2013-10-22 03:16:00,
2013-10-21 23:31:00,77.2,75.0,29.90,ENE,65,1.0,1.0,91,0.00,,,0.61,weatherlink.com 1.10,2013-10-22 03:31:00,
2013-10-21 23:46:00,77.4,75.0,29.90,SE,141,1.0,2.0,91,0.00,,,0.61,weatherlink.com 1.10,2013-10-22 03:46:00,